Location: Pic du Midi - T1M
(42.9366°N, 0.1426°E)
Time: 12:53:53
(UTC+01:00)

DUCHIFAT 1 - Pass Details

Date: 22 September 2021
Orbit: 583 x 603 km, 98.0° (Epoch: 18 October)

Event Time Altitude Azimuth Distance (km) Brightness Sun altitude
Rises 03:25:22 0° 7° (N) 2,836 ? -34.8°
Reaches altitude 10° 03:27:35 10° 3° (N) 1,926 ? -34.5°
Enters shadow 03:27:43 11° 2° (N) 1,872 ? -34.5°
